QPF
0.00 0.00 0.00 0.00 0.00 0.00 0.00 0.00 0.00 0.00 0.00 0.00 0.00 0.00 0.00 0.00 0.00 0.00 0.00 0.00 0.01 0.07 0.09 0.11 0.10 0.02 0.02 0.02 0.02 0.04 0.06 0.06 0.06 0.06 0.06 0.06 0.05 0.04 0.03 0.05 0.08 0.08 0.09 0.09
0.00 0.00 0.00 0.00 0.00 0.00 0.00 0.00 0.00 0.00 0.00 0.00 0.00 0.00 0.00 0.00 0.00 0.00 0.00 0.00 0.01 0.06 0.05 0.02 0.02 0.02 0.02 0.02 0.01 0.03 0.04 0.05 0.05 0.05 0.05 0.06 0.05 0.04 0.05 0.07 0.08 0.07 0.08 0.08
0.00 0.00 0.00 0.00 0.00 0.00 0.00 0.00 0.00 0.00 0.00 0.00 0.00 0.00 0.00 0.00 0.00 0.00 0.00 0.00 0.00 0.01 0.01 0.01 0.01 0.01 0.01 0.01 0.01 0.02 0.03 0.05 0.06 0.07 0.07 0.07 0.06 0.06 0.07 0.09 0.10 0.08 0.07 0.08
0.00 0.00 0.00 0.00 0.00 0.00 0.00 0.00 0.00 0.00 0.00 0.00 0.00 0.00 0.00 0.00 0.00 0.00 0.00 0.00 0.00 0.00 0.01 0.01 0.01 0.01 0.00 0.01 0.02 0.02 0.03 0.05 0.07 0.09 0.08 0.07 0.06 0.07 0.08 0.09 0.08 0.08 0.08 0.09
0.00 0.00 0.00 0.00 0.00 0.00 0.00 0.00 0.00 0.00 0.00 0.00 0.00 0.00 0.00 0.00 0.00 0.00 0.00 0.00 0.00 0.00 0.01 0.01 0.01 0.01 0.01 0.01 0.02 0.03 0.03 0.05 0.08 0.09 0.08 0.08 0.08 0.09 0.10 0.09 0.08 0.07 0.08 0.08
0.00 0.00 0.00 0.00 0.00 0.00 0.00 0.00 0.00 0.00 0.00 0.00 0.00 0.00 0.00 0.00 0.00 0.00 0.00 0.00 0.00 0.00 0.01 0.01 0.01 0.00 0.01 0.01 0.02 0.04 0.03 0.04 0.07 0.08 0.08 0.09 0.09 0.10 0.10 0.07 0.05 0.05 0.05 0.07
0.00 0.00 0.00 0.00 0.00 0.00 0.00 0.00 0.00 0.00 0.00 0.00 0.00 0.00 0.00 0.00 0.00 0.00 0.00 0.00 0.00 0.00 0.00 0.00 0.00 0.00 0.00 0.01 0.01 0.03 0.03 0.03 0.06 0.07 0.08 0.09 0.08 0.07 0.05 0.05 0.04 0.06 0.05 0.06
0.00 0.00 0.00 0.00 0.00 0.00 0.00 0.00 0.00 0.00 0.00 0.00 0.00 0.00 0.00 0.00 0.00 0.00 0.00 0.00 0.00 0.00 0.00 0.00 0.01 0.01 0.00 0.00 0.01 0.01 0.02 0.03 0.05 0.05 0.05 0.06 0.06 0.04 0.03 0.03 0.03 0.04 0.06 0.06
0.00 0.00 0.00 0.00 0.00 0.00 0.00 0.00 0.00 0.00 0.00 0.00 0.00 0.00 0.00 0.00 0.00 0.00 0.00 0.00 0.00 0.00 0.01 0.02 0.02 0.02 0.00 0.00 0.01 0.01 0.02 0.02 0.02 0.02 0.02 0.03 0.03 0.03 0.03 0.02 0.02 0.02 0.04 0.05
0.00 0.00 0.00 0.00 0.00 0.00 0.00 0.00 0.00 0.00 0.00 0.00 0.00 0.00 0.00 0.00 0.00 0.00 0.00 0.00 0.00 0.00 0.01 0.02 0.00 0.00 0.00 0.00 0.00 0.01 0.01 0.01 0.00 0.01 0.01 0.01 0.02 0.03 0.03 0.03 0.03 0.03 0.04 0.04
0.00 0.00 0.00 0.00 0.00 0.00 0.00 0.00 0.00 0.00 0.00 0.00 0.00 0.00 0.00 0.00 0.00 0.00 0.00 0.00 0.00 0.00 0.00 0.00 0.00 0.00 0.00 0.00 0.00 0.00 0.00 0.00 0.00 0.00 0.00 0.00 0.01 0.02 0.01 0.01 0.01 0.03 0.04 0.05
0.00 0.00 0.00 0.00 0.00 0.00 0.00 0.00 0.00 0.00 0.00 0.00 0.00 0.00 0.00 0.00 0.00 0.00 0.00 0.00 0.00 0.00 0.00 0.00 0.00 0.00 0.00 0.00 0.01 0.00 0.00 0.00 0.00 0.00 0.00 0.00 0.00 0.01 0.00 0.01 0.02 0.03 0.02 0.04
0.00 0.00 0.00 0.00 0.00 0.00 0.00 0.00 0.00 0.00 0.00 0.00 0.00 0.00 0.00 0.00 0.00 0.00 0.00 0.00 0.00 0.00 0.00 0.00 0.00 0.00 0.00 0.00 0.00 0.00 0.00 0.00 0.00 0.00 0.00 0.00 0.00 0.00 0.00 0.01 0.02 0.02 0.02 0.03
0.00 0.00 0.00 0.00 0.00 0.00 0.00 0.00 0.00 0.00 0.00 0.00 0.00 0.00 0.00 0.00 0.00 0.00 0.00 0.00 0.00 0.00 0.00 0.00 0.00 0.00 0.00 0.00 0.00 0.00 0.00 0.00 0.00 0.00 0.00 0.00 0.01 0.01 0.01 0.01 0.01 0.02 0.03 0.04
0.00 0.00 0.00 0.00 0.00 0.00 0.00 0.00 0.00 0.00 0.00 0.00 0.00 0.00 0.00 0.00 0.00 0.00 0.00 0.00 0.00 0.00 0.00 0.00 0.00 0.00 0.00 0.00 0.00 0.00 0.00 0.00 0.00 0.00 0.01 0.01 0.01 0.01 0.01 0.01 0.03 0.04 0.04 0.04
0.00 0.00 0.00 0.00 0.00 0.00 0.00 0.00 0.00 0.00 0.00 0.00 0.00 0.00 0.00 0.00 0.00 0.00 0.00 0.00 0.00 0.00 0.01 0.01 0.00 0.00 0.01 0.01 0.00 0.00 0.00 0.00 0.00 0.01 0.02 0.02 0.02 0.02 0.02 0.02 0.03 0.04 0.05 0.06
0.00 0.00 0.00 0.00 0.00 0.00 0.00 0.00 0.00 0.00 0.00 0.00 0.00 0.00 0.00 0.00 0.00 0.00 0.00 0.00 0.00 0.00 0.01 0.01 0.01 0.01 0.01 0.01 0.00 0.00 0.00 0.01 0.01 0.01 0.01 0.01 0.02 0.02 0.03 0.04 0.04 0.04 0.04 0.04
0.00 0.00 0.00 0.00 0.00 0.00 0.00 0.00 0.00 0.00 0.00 0.00 0.00 0.00 0.00 0.00 0.00 0.00 0.00 0.00 0.00 0.00 0.00 0.00 0.00 0.01 0.01 0.01 0.01 0.00 0.01 0.01 0.01 0.03 0.04 0.03 0.03 0.04 0.06 0.07 0.06 0.04 0.04 0.04
0.00 0.00 0.00 0.00 0.00 0.00 0.00 0.00 0.00 0.00 0.00 0.00 0.00 0.00 0.00 0.00 0.00 0.00 0.00 0.00 0.00 0.00 0.00 0.00 0.01 0.01 0.01 0.01 0.01 0.01 0.02 0.01 0.02 0.02 0.03 0.03 0.03 0.04 0.06 0.06 0.04 0.03 0.02 0.02
0.00 0.00 0.00 0.00 0.00 0.00 0.00 0.00 0.00 0.00 0.00 0.00 0.00 0.00 0.00 0.00 0.00 0.00 0.00 0.00 0.00 0.00 0.00 0.01 0.01 0.01 0.02 0.02 0.03 0.02 0.02 0.02 0.02 0.02 0.03 0.03 0.04 0.04 0.05 0.04 0.03 0.02 0.01 0.01
0.00 0.00 0.00 0.00 0.00 0.00 0.00 0.00 0.00 0.00 0.00 0.00 0.00 0.00 0.00 0.01 0.00 0.01 0.01 0.01 0.01 0.01 0.01 0.01 0.02 0.03 0.03 0.04 0.03 0.03 0.04 0.03 0.03 0.02 0.02 0.02 0.02 0.03 0.03 0.03 0.02 0.02 0.02 0.02
0.00 0.00 0.00 0.00 0.00 0.00 0.00 0.00 0.00 0.00 0.01 0.01 0.01 0.01 0.01 0.01 0.01 0.01 0.01 0.02 0.03 0.02 0.02 0.03 0.04 0.05 0.06 0.05 0.05 0.06 0.06 0.04 0.03 0.03 0.03 0.03 0.02 0.03 0.04 0.04 0.03 0.03 0.03 0.03
0.00 0.00 0.00 0.00 0.00 0.00 0.00 0.00 0.01 0.01 0.01 0.01 0.01 0.01 0.01 0.01 0.02 0.03 0.03 0.03 0.04 0.04 0.05 0.06 0.06 0.06 0.07 0.07 0.07 0.06 0.05 0.05 0.05 0.05 0.05 0.05 0.04 0.04 0.05 0.05 0.06 0.05 0.04 0.04
0.00 0.00 0.00 0.00 0.01 0.01 0.01 0.01 0.01 0.01 0.01 0.01 0.02 0.02 0.02 0.02 0.02 0.04 0.06 0.06 0.06 0.07 0.07 0.07 0.07 0.07 0.07 0.07 0.08 0.07 0.08 0.08 0.08 0.08 0.08 0.09 0.09 0.08 0.07 0.07 0.06 0.05 0.05 0.05
0.00 0.00 0.01 0.01 0.01 0.02 0.02 0.02 0.01 0.01 0.01 0.01 0.02 0.02 0.02 0.03 0.03 0.04 0.06 0.07 0.08 0.07 0.07 0.08 0.11 0.10 0.07 0.07 0.09 0.10 0.10 0.10 0.10 0.10 0.10 0.12 0.12 0.10 0.10 0.10 0.07 0.06 0.06 0.06
0.01 0.01 0.01 0.01 0.01 0.02 0.02 0.02 0.02 0.01 0.02 0.02 0.01 0.02 0.03 0.04 0.04 0.05 0.05 0.06 0.07 0.08 0.08 0.08 0.10 0.11 0.07 0.06 0.09 0.10 0.09 0.09 0.10 0.10 0.09 0.08 0.08 0.07 0.08 0.08 0.07 0.07 0.05 0.06
MSLP
1011.20 1012.10 1012.84 1013.42 1013.83 1014.13 1014.33 1014.47 1014.56 1014.58 1014.53 1014.38 1014.14 1013.82 1013.44 1013.07 1012.75 1012.53 1012.44 1012.48 1012.65 1012.91 1013.23 1013.55 1013.86 1014.13 1014.38 1014.62 1014.87 1015.14 1015.45 1015.79 1016.15 1016.51 1016.86 1017.17 1017.43 1017.66 1017.85 1018.03 1018.21 1018.41 1018.63 1018.87
1012.07 1012.77 1013.29 1013.67 1013.93 1014.15 1014.36 1014.57 1014.78 1014.94 1015.01 1014.93 1014.69 1014.29 1013.78 1013.23 1012.71 1012.31 1012.08 1012.04 1012.20 1012.49 1012.88 1013.30 1013.70 1014.05 1014.35 1014.62 1014.87 1015.15 1015.47 1015.84 1016.25 1016.66 1017.06 1017.41 1017.68 1017.89 1018.04 1018.15 1018.26 1018.38 1018.54 1018.74
1012.68 1013.15 1013.45 1013.63 1013.78 1013.97 1014.24 1014.60 1014.99 1015.34 1015.57 1015.59 1015.36 1014.90 1014.24 1013.48 1012.74 1012.13 1011.73 1011.58 1011.68 1011.99 1012.43 1012.94 1013.43 1013.87 1014.24 1014.55 1014.85 1015.16 1015.51 1015.92 1016.37 1016.84 1017.28 1017.66 1017.95 1018.15 1018.26 1018.31 1018.34 1018.39 1018.49 1018.65
1013.03 1013.26 1013.35 1013.39 1013.48 1013.70 1014.10 1014.65 1015.27 1015.86 1016.27 1016.41 1016.21 1015.67 1014.85 1013.88 1012.89 1012.04 1011.43 1011.13 1011.14 1011.43 1011.90 1012.47 1013.05 1013.57 1014.02 1014.39 1014.74 1015.09 1015.48 1015.94 1016.44 1016.95 1017.44 1017.86 1018.16 1018.35 1018.43 1018.44 1018.42 1018.41 1018.46 1018.58
1013.17 1013.21 1013.14 1013.09 1013.17 1013.48 1014.05 1014.83 1015.71 1016.54 1017.14 1017.39 1017.21 1016.59 1015.62 1014.42 1013.17 1012.07 1011.23 1010.75 1010.65 1010.87 1011.35 1011.95 1012.58 1013.17 1013.68 1014.12 1014.51 1014.91 1015.34 1015.83 1016.37 1016.93 1017.46 1017.91 1018.24 1018.43 1018.50 1018.48 1018.42 1018.38 1018.39 1018.47
1013.21 1013.09 1012.92 1012.84 1012.98 1013.43 1014.19 1015.21 1016.34 1017.38 1018.15 1018.49 1018.31 1017.61 1016.47 1015.05 1013.57 1012.21 1011.15 1010.49 1010.25 1010.39 1010.83 1011.44 1012.10 1012.73 1013.29 1013.76 1014.19 1014.61 1015.07 1015.59 1016.16 1016.74 1017.30 1017.78 1018.13 1018.34 1018.41 1018.38 1018.31 1018.24 1018.23 1018.29
1013.24 1013.02 1012.81 1012.76 1013.00 1013.59 1014.55 1015.78 1017.10 1018.32 1019.20 1019.58 1019.38 1018.59 1017.31 1015.71 1014.01 1012.45 1011.20 1010.37 1010.00 1010.05 1010.43 1011.02 1011.68 1012.32 1012.89 1013.38 1013.82 1014.25 1014.71 1015.23 1015.81 1016.40 1016.97 1017.47 1017.84 1018.06 1018.15 1018.13 1018.06 1017.99 1017.96 1018.01
1013.29 1013.05 1012.86 1012.88 1013.22 1013.97 1015.08 1016.46 1017.91 1019.21 1020.14 1020.52 1020.28 1019.40 1018.01 1016.27 1014.44 1012.73 1011.35 1010.40 1009.93 1009.90 1010.23 1010.77 1011.40 1012.02 1012.58 1013.05 1013.48 1013.89 1014.33 1014.83 1015.39 1015.97 1016.54 1017.03 1017.41 1017.65 1017.75 1017.75 1017.69 1017.62 1017.59 1017.63
1013.36 1013.15 1013.03 1013.14 1013.60 1014.46 1015.66 1017.11 1018.59 1019.90 1020.80 1021.14 1020.83 1019.90 1018.44 1016.65 1014.76 1013.00 1011.57 1010.57 1010.05 1009.97 1010.25 1010.74 1011.32 1011.89 1012.41 1012.84 1013.23 1013.60 1014.00 1014.46 1014.98 1015.54 1016.08 1016.56 1016.94 1017.18 1017.29 1017.30 1017.25 1017.19 1017.15 1017.18
1013.42 1013.28 1013.26 1013.47 1014.02 1014.93 1016.16 1017.59 1019.01 1020.23 1021.05 1021.31 1020.94 1019.97 1018.51 1016.75 1014.91 1013.20 1011.81 1010.85 1010.34 1010.24 1010.48 1010.92 1011.44 1011.95 1012.41 1012.78 1013.11 1013.43 1013.78 1014.19 1014.66 1015.17 1015.68 1016.14 1016.50 1016.74 1016.85 1016.86 1016.81 1016.75 1016.71 1016.73
1013.39 1013.36 1013.44 1013.75 1014.35 1015.26 1016.44 1017.76 1019.05 1020.11 1020.79 1020.94 1020.52 1019.57 1018.18 1016.53 1014.84 1013.28 1012.03 1011.16 1010.72 1010.64 1010.86 1011.25 1011.71 1012.16 1012.54 1012.85 1013.11 1013.38 1013.68 1014.04 1014.46 1014.93 1015.40 1015.82 1016.16 1016.38 1016.48 1016.49 1016.43 1016.36 1016.32 1016.32
1013.24 1013.32 1013.51 1013.89 1014.51 1015.37 1016.43 1017.58 1018.67 1019.54 1020.05 1020.10 1019.65 1018.74 1017.48 1016.02 1014.55 1013.21 1012.16 1011.45 1011.10 1011.07 1011.28 1011.63 1012.02 1012.39 1012.70 1012.95 1013.16 1013.38 1013.64 1013.97 1014.36 1014.79 1015.22 1015.61 1015.92 1016.12 1016.21 1016.21 1016.15 1016.07 1016.01 1016.00
1012.98 1013.18 1013.46 1013.88 1014.49 1015.26 1016.16 1017.10 1017.96 1018.61 1018.94 1018.88 1018.43 1017.61 1016.52 1015.29 1014.07 1013.00 1012.16 1011.63 1011.39 1011.41 1011.61 1011.92 1012.24 1012.54 1012.78 1012.97 1013.15 1013.34 1013.58 1013.89 1014.26 1014.67 1015.08 1015.45 1015.74 1015.93 1016.02 1016.01 1015.95 1015.87 1015.80 1015.77
1012.68 1012.97 1013.33 1013.78 1014.33 1014.99 1015.71 1016.42 1017.04 1017.46 1017.63 1017.48 1017.03 1016.31 1015.40 1014.41 1013.46 1012.65 1012.04 1011.67 1011.53 1011.58 1011.76 1012.01 1012.26 1012.49 1012.67 1012.82 1012.97 1013.15 1013.39 1013.70 1014.07 1014.48 1014.89 1015.26 1015.54 1015.73 1015.83 1015.83 1015.78 1015.71 1015.65 1015.61
1012.44 1012.81 1013.21 1013.66 1014.15 1014.68 1015.21 1015.70 1016.08 1016.30 1016.31 1016.09 1015.64 1015.02 1014.29 1013.52 1012.80 1012.21 1011.78 1011.54 1011.46 1011.53 1011.67 1011.85 1012.02 1012.17 1012.30 1012.42 1012.55 1012.74 1012.99 1013.32 1013.71 1014.13 1014.55 1014.93 1015.23 1015.44 1015.56 1015.60 1015.58 1015.54 1015.51 1015.49
1012.38 1012.80 1013.22 1013.64 1014.05 1014.44 1014.80 1015.08 1015.25 1015.28 1015.15 1014.87 1014.43 1013.89 1013.29 1012.70 1012.16 1011.74 1011.44 1011.27 1011.22 1011.26 1011.34 1011.44 1011.53 1011.61 1011.68 1011.77 1011.90 1012.09 1012.37 1012.72 1013.13 1013.57 1014.00 1014.40 1014.73 1014.98 1015.15 1015.24 1015.29 1015.31 1015.33 1015.36
1012.55 1012.99 1013.41 1013.78 1014.11 1014.38 1014.57 1014.67 1014.66 1014.53 1014.28 1013.93 1013.49 1013.00 1012.50 1012.03 1011.61 1011.29 1011.06 1010.92 1010.86 1010.84 1010.85 1010.86 1010.87 1010.88 1010.90 1010.96 1011.07 1011.27 1011.55 1011.92 1012.34 1012.79 1013.24 1013.66 1014.03 1014.34 1014.57 1014.75 1014.88 1014.99 1015.09 1015.18
1012.99 1013.41 1013.80 1014.11 1014.35 1014.50 1014.55 1014.50 1014.34 1014.08 1013.74 1013.33 1012.88 1012.41 1011.96 1011.55 1011.20 1010.92 1010.72 1010.57 1010.46 1010.38 1010.31 1010.24 1010.17 1010.12 1010.09 1010.11 1010.21 1010.39 1010.66 1011.01 1011.43 1011.88 1012.33 1012.78 1013.19 1013.55 1013.86 1014.14 1014.37 1014.59 1014.79 1014.98
1013.60 1013.99 1014.32 1014.57 1014.71 1014.75 1014.68 1014.51 1014.24 1013.89 1013.47 1013.01 1012.55 1012.08 1011.65 1011.27 1010.95 1010.68 1010.47 1010.30 1010.15 1010.01 1009.87 1009.74 1009.61 1009.50 1009.42 1009.41 1009.47 1009.61 1009.84 1010.16 1010.53 1010.96 1011.40 1011.86 1012.30 1012.72 1013.12 1013.49 1013.84 1014.18 1014.49 1014.77
1014.29 1014.61 1014.87 1015.03 1015.09 1015.04 1014.88 1014.61 1014.26 1013.85 1013.38 1012.90 1012.42 1011.96 1011.54 1011.17 1010.85 1010.59 1010.36 1010.17 1009.99 1009.81 1009.64 1009.46 1009.30 1009.15 1009.04 1008.98 1008.98 1009.07 1009.24 1009.48 1009.80 1010.18 1010.59 1011.04 1011.51 1011.98 1012.46 1012.93 1013.39 1013.83 1014.25 1014.63
1014.90 1015.15 1015.31 1015.39 1015.36 1015.23 1015.01 1014.69 1014.30 1013.85 1013.37 1012.88 1012.41 1011.95 1011.54 1011.19 1010.88 1010.62 1010.40 1010.21 1010.03 1009.85 1009.67 1009.49 1009.31 1009.14 1009.00 1008.89 1008.84 1008.86 1008.95 1009.11 1009.35 1009.66 1010.03 1010.46 1010.94 1011.45 1012.00 1012.55 1013.11 1013.65 1014.16 1014.62
1015.34 1015.49 1015.56 1015.55 1015.45 1015.26 1015.00 1014.66 1014.26 1013.82 1013.35 1012.88 1012.43 1012.00 1011.62 1011.28 1011.00 1010.77 1010.57 1010.41 1010.26 1010.12 1009.97 1009.81 1009.64 1009.48 1009.31 1009.17 1009.06 1009.00 1009.00 1009.08 1009.23 1009.48 1009.80 1010.21 1010.69 1011.24 1011.83 1012.45 1013.08 1013.70 1014.27 1014.79
1015.55 1015.60 1015.58 1015.48 1015.32 1015.09 1014.81 1014.48 1014.10 1013.70 1013.27 1012.85 1012.44 1012.05 1011.71 1011.41 1011.17 1010.98 1010.84 1010.73 1010.64 1010.55 1010.46 1010.35 1010.22 1010.07 1009.91 1009.74 1009.58 1009.45 1009.38 1009.38 1009.46 1009.64 1009.93 1010.32 1010.80 1011.37 1012.00 1012.66 1013.34 1014.00 1014.61 1015.16
1015.55 1015.50 1015.39 1015.22 1015.01 1014.77 1014.49 1014.18 1013.85 1013.50 1013.14 1012.77 1012.42 1012.09 1011.80 1011.55 1011.37 1011.23 1011.15 1011.11 1011.09 1011.08 1011.06 1011.02 1010.94 1010.82 1010.67 1010.48 1010.30 1010.13 1010.00 1009.94 1009.97 1010.12 1010.37 1010.75 1011.24 1011.83 1012.48 1013.18 1013.87 1014.54 1015.16 1015.71
1015.42 1015.27 1015.07 1014.85 1014.61 1014.36 1014.11 1013.84 1013.57 1013.28 1012.99 1012.69 1012.40 1012.12 1011.88 1011.69 1011.55 1011.47 1011.45 1011.47 1011.53 1011.60 1011.66 1011.69 1011.66 1011.59 1011.46 1011.29 1011.09 1010.90 1010.75 1010.67 1010.68 1010.81 1011.07 1011.45 1011.96 1012.56 1013.22 1013.92 1014.61 1015.27 1015.86 1016.37
1015.24 1015.01 1014.76 1014.49 1014.24 1014.00 1013.77 1013.55 1013.33 1013.11 1012.88 1012.64 1012.39 1012.16 1011.96 1011.81 1011.71 1011.67 1011.70 1011.78 1011.90 1012.04 1012.17 1012.26 1012.29 1012.27 1012.18 1012.03 1011.86 1011.68 1011.54 1011.46 1011.49 1011.63 1011.91 1012.31 1012.83 1013.44 1014.10 1014.79 1015.46 1016.07 1016.62 1017.08
Thickness
5818 5803 5794 5801 5806 5808 5803 5796 5791 5800 5817 5811 5804 5804 5809 5813 5811 5806 5802 5799 5797 5796 5797 5795 5792 5788 5784 5778 5774 5769 5764 5762 5758 5753 5749 5746 5744 5744 5744 5744 5744 5743 5743 5742
5797 5794 5808 5814 5813 5809 5803 5795 5794 5803 5815 5810 5802 5802 5810 5813 5813 5812 5807 5803 5801 5797 5795 5794 5792 5789 5786 5781 5776 5772 5767 5764 5761 5757 5753 5749 5747 5745 5745 5744 5744 5744 5743 5742
5793 5801 5816 5813 5808 5804 5801 5797 5799 5800 5805 5804 5800 5793 5802 5812 5815 5815 5813 5809 5806 5802 5797 5795 5793 5791 5788 5784 5780 5776 5771 5767 5762 5758 5753 5750 5746 5744 5743 5742 5743 5743 5743 5743
5795 5807 5811 5809 5806 5805 5793 5810 5808 5802 5789 5777 5788 5767 5791 5802 5805 5810 5812 5810 5809 5807 5803 5798 5795 5793 5791 5788 5784 5779 5774 5769 5764 5759 5755 5750 5745 5742 5742 5742 5742 5743 5743 5743
5791 5805 5806 5804 5810 5811 5805 5811 5804 5797 5786 5772 5777 5767 5778 5796 5799 5808 5814 5815 5814 5811 5807 5803 5800 5798 5795 5791 5786 5781 5775 5770 5766 5761 5757 5752 5747 5745 5744 5743 5741 5741 5742 5742
5795 5809 5812 5812 5819 5818 5811 5798 5786 5773 5765 5755 5772 5766 5770 5787 5802 5812 5818 5819 5817 5815 5811 5807 5804 5801 5796 5792 5787 5782 5776 5771 5768 5763 5759 5754 5750 5746 5743 5741 5740 5740 5740 5741
5784 5798 5811 5819 5808 5808 5800 5773 5747 5746 5736 5744 5766 5765 5772 5805 5816 5819 5821 5821 5821 5818 5812 5807 5803 5800 5796 5792 5788 5783 5778 5773 5769 5765 5761 5757 5753 5749 5745 5743 5741 5740 5739 5740
5762 5765 5797 5810 5805 5794 5790 5776 5745 5735 5732 5741 5760 5761 5788 5817 5825 5828 5828 5825 5822 5818 5814 5809 5806 5802 5798 5795 5791 5785 5780 5774 5771 5766 5763 5759 5756 5752 5748 5746 5744 5742 5741 5741
5754 5762 5797 5809 5813 5800 5781 5772 5770 5744 5740 5738 5748 5767 5795 5819 5821 5824 5824 5822 5819 5817 5815 5812 5808 5804 5801 5797 5793 5788 5782 5776 5772 5768 5764 5760 5757 5753 5750 5747 5745 5743 5742 5742
5767 5763 5784 5799 5804 5798 5792 5772 5753 5740 5726 5728 5744 5757 5771 5801 5810 5816 5817 5817 5817 5817 5815 5813 5809 5806 5803 5799 5795 5790 5784 5779 5774 5770 5765 5762 5758 5754 5751 5748 5745 5744 5743 5742
5772 5760 5770 5781 5784 5780 5776 5768 5752 5737 5738 5724 5728 5751 5794 5802 5811 5813 5817 5819 5818 5817 5815 5813 5810 5808 5804 5799 5794 5789 5784 5779 5774 5770 5766 5762 5758 5755 5752 5749 5746 5744 5743 5741
5765 5751 5745 5763 5785 5793 5786 5772 5757 5746 5737 5730 5731 5754 5810 5810 5813 5815 5817 5819 5818 5817 5815 5812 5809 5806 5802 5797 5793 5789 5784 5780 5776 5771 5767 5763 5759 5755 5752 5749 5747 5745 5743 5741
5759 5742 5732 5742 5758 5775 5776 5770 5765 5752 5734 5722 5728 5759 5807 5809 5812 5815 5816 5817 5816 5814 5812 5809 5806 5803 5800 5796 5792 5789 5785 5781 5777 5772 5767 5762 5759 5755 5752 5750 5747 5745 5743 5740
5763 5740 5737 5735 5745 5763 5768 5766 5761 5754 5735 5728 5740 5764 5791 5801 5805 5811 5814 5815 5814 5812 5810 5807 5804 5801 5799 5796 5792 5788 5784 5781 5777 5772 5767 5763 5759 5756 5753 5750 5747 5744 5741 5739
5755 5738 5744 5753 5764 5767 5771 5769 5763 5762 5756 5749 5759 5764 5786 5798 5805 5811 5813 5812 5810 5808 5807 5806 5803 5800 5797 5794 5791 5787 5784 5781 5777 5772 5767 5763 5759 5756 5752 5748 5745 5742 5739 5737
5738 5736 5739 5748 5758 5763 5765 5769 5766 5768 5766 5765 5770 5773 5796 5800 5803 5806 5808 5808 5807 5807 5808 5806 5803 5800 5796 5794 5790 5787 5783 5780 5776 5770 5765 5761 5757 5753 5749 5746 5743 5740 5736 5733
5722 5725 5723 5725 5746 5749 5742 5761 5765 5768 5772 5771 5768 5782 5793 5795 5798 5802 5805 5806 5808 5809 5808 5805 5803 5801 5798 5795 5792 5786 5783 5779 5773 5768 5763 5759 5754 5750 5746 5743 5739 5735 5732 5729
5717 5713 5709 5712 5725 5714 5744 5771 5773 5770 5773 5777 5780 5785 5789 5793 5798 5801 5804 5805 5806 5807 5806 5805 5803 5800 5797 5795 5791 5786 5781 5776 5770 5765 5761 5755 5751 5746 5742 5739 5735 5732 5729 5725
5715 5709 5699 5697 5703 5718 5745 5763 5765 5761 5762 5773 5774 5781 5785 5790 5793 5794 5801 5803 5804 5805 5805 5803 5801 5798 5794 5789 5786 5781 5775 5770 5765 5761 5757 5753 5748 5743 5738 5734 5731 5728 5724 5720
5703 5704 5696 5691 5697 5700 5731 5757 5766 5762 5748 5767 5769 5772 5776 5779 5770 5780 5794 5797 5798 5799 5799 5798 5796 5792 5787 5784 5780 5774 5768 5764 5759 5755 5752 5748 5744 5740 5735 5732 5728 5724 5720 5716
5686 5686 5686 5687 5693 5705 5731 5746 5755 5733 5739 5760 5763 5765 5768 5768 5771 5778 5785 5787 5788 5789 5789 5789 5787 5783 5778 5775 5772 5767 5761 5757 5754 5750 5746 5742 5738 5733 5729 5725 5722 5718 5714 5710
5672 5673 5674 5675 5683 5695 5725 5732 5730 5732 5746 5752 5755 5759 5760 5763 5767 5770 5773 5774 5775 5776 5776 5776 5775 5773 5768 5766 5763 5758 5752 5750 5747 5743 5738 5734 5732 5728 5723 5717 5713 5709 5706 5703
5661 5668 5670 5676 5682 5699 5710 5716 5724 5731 5736 5743 5746 5751 5753 5754 5756 5757 5759 5760 5762 5763 5763 5764 5763 5760 5758 5755 5752 5748 5744 5741 5737 5734 5729 5726 5723 5719 5716 5711 5705 5700 5697 5695
5655 5661 5664 5670 5681 5692 5701 5709 5716 5722 5727 5734 5739 5742 5744 5744 5745 5745 5746 5746 5748 5749 5749 5750 5750 5747 5744 5742 5740 5738 5735 5732 5726 5722 5719 5716 5713 5708 5705 5701 5696 5692 5689 5687
5644 5651 5653 5659 5671 5681 5691 5697 5703 5710 5717 5723 5727 5730 5731 5733 5732 5732 5732 5732 5732 5733 5733 5735 5733 5731 5729 5729 5727 5725 5724 5721 5716 5712 5710 5706 5702 5697 5692 5688 5685 5683 5680 5678
5633 5639 5643 5648 5660 5664 5673 5685 5693 5697 5703 5708 5711 5714 5717 5719 5719 5719 5718 5718 5718 5718 5718 5718 5717 5714 5713 5713 5713 5712 5710 5708 5704 5699 5697 5694 5690 5685 5681 5677 5673 5670 5668 5667